FW8637 Weather Reports


time (UTC)temp
C
wind
direction
speed
KPH
gust
KPH
rain 1hr
cm
rain 24hr
cm
rain mn
cm
humidity
%
barometer
mb
20260504014604 12 292 0.0 0.0 0.00 0.00 0.00 72 1017.5
20260504014101 12 292 0.0 0.0 0.00 0.00 0.00 71 1017.5
20260504013559 13 292 0.0 0.0 0.00 0.00 0.00 72 1017.2
20260504013055 13 292 0.0 0.0 0.00 0.00 0.00 72 1017.6
20260504012553 13 292 0.0 0.0 0.00 0.00 0.00 66 1017.3
20260504012051 13 292 0.0 0.0 0.00 0.00 0.00 68 1017.4
20260504011547 13 292 0.0 0.0 0.00 0.00 0.00 71 1017.5
20260504011043 13 292 0.0 0.0 0.00 0.00 0.00 69 1017.5
20260504010539 14 292 0.0 0.0 0.00 0.00 0.00 70 1017.7
20260504010036 15 292 0.0 0.0 0.00 0.00 0.00 68 1017.2
20260504005532 15 292 0.0 0.0 0.00 0.00 0.00 64 1017.3
20260504005030 15 292 0.0 0.0 0.00 0.00 0.00 60 1017.3
20260504004528 15 292 0.0 0.0 0.00 0.00 0.00 61 1017.3
20260504004024 15 292 0.0 0.0 0.00 0.00 0.00 62 1017.4
20260504003520 15 292 0.0 0.0 0.00 0.00 0.00 63 1017.5
20260504003017 15 292 0.0 0.0 0.00 0.00 0.00 63 1017.3
20260504002514 15 292 0.0 0.0 0.00 0.00 0.00 62 1017.2
20260504002012 15 292 0.0 0.0 0.00 0.00 0.00 62 1017.2
20260504001509 16 292 0.0 0.0 0.00 0.00 0.00 63 1017.0
20260504001005 16 292 0.0 0.0 0.00 0.00 0.00 62 1016.9
20260504000503 16 292 0.0 0.0 0.00 0.00 0.00 62 1017.2
20260504000000 16 292 0.0 0.0 0.00 0.00 0.00 62 1017.2
20260503235458 16 292 0.0 0.0 0.00 0.00 0.00 61 1017.0
20260503234954 16 292 0.0 0.0 0.00 0.00 0.00 62 1017.0
20260503234452 16 292 0.0 0.0 0.00 0.00 0.00 61 1017.2
20260503233950 16 292 0.0 0.0 0.00 0.00 0.00 59 1017.2
20260503233446 17 292 0.0 0.0 0.00 0.00 0.00 58 1017.2
20260503232943 17 292 0.0 0.0 0.00 0.00 0.00 57 1017.2
20260503232439 17 292 0.0 0.0 0.00 0.00 0.00 59 1017.0
20260503231937 17 292 0.0 0.0 0.00 0.00 0.00 58 1017.3
20260503231435 17 292 0.0 0.0 0.00 0.00 0.00 56 1017.5
20260503230931 17 292 0.0 0.0 0.00 0.00 0.00 59 1017.3
20260503230428 17 292 0.0 0.0 0.00 0.00 0.00 55 1017.2
20260503225925 18 292 0.0 0.0 0.00 0.00 0.00 57 1017.5
20260503225422 18 292 0.0 0.0 0.00 0.00 0.00 55 1017.7
20260503224918 18 292 0.0 0.0 0.00 0.00 0.00 47 1017.7
20260503224415 18 292 0.0 0.0 0.00 0.00 0.00 52 1017.5
20260503223912 18 292 0.0 0.0 0.00 0.00 0.00 53 1017.5
20260503223410 18 292 0.0 0.0 0.00 0.00 0.00 48 1017.7
20260503222910 18 292 0.0 0.0 0.00 0.00 0.00 46 1017.9
20260503222409 18 292 0.0 0.0 0.00 0.00 0.00 47 1017.6
20260503221907 18 292 0.0 0.0 0.00 0.00 0.00 48 1017.7
20260503221406 18 291 0.0 0.0 0.00 0.00 0.00 47 1017.8
20260503220901 18 291 0.0 0.0 0.00 0.00 0.00 48 1017.8
20260503220358 18 291 0.0 0.0 0.00 0.00 0.00 44 1018.1
20260503215855 18 291 0.0 0.0 0.00 0.00 0.00 45 1018.0
20260503215352 18 292 0.0 0.0 0.00 0.00 0.00 50 1018.0
20260503214849 19 291 0.0 0.0 0.00 0.00 0.00 45 1018.1
20260503214347 18 291 0.0 1.6 0.00 0.00 0.00 45 1018.1
20260503213844 18 292 0.0 0.0 0.00 0.00 0.00 47 1018.0
20260503213342 18 292 0.0 0.0 0.00 0.00 0.00 43 1018.1
20260503212838 19 292 0.0 0.0 0.00 0.00 0.00 45 1018.1
20260503212336 19 292 0.0 0.0 0.00 0.00 0.00 48 1018.3
20260503211833 19 292 0.0 0.0 0.00 0.00 0.00 44 1018.4
20260503211330 19 292 0.0 0.0 0.00 0.00 0.00 42 1018.3
20260503210825 19 292 0.0 0.0 0.00 0.00 0.00 47 1018.5
20260503210323 19 292 0.0 0.0 0.00 0.00 0.00 43 1018.5
20260503205818 19 292 0.0 0.0 0.00 0.00 0.00 48 1018.4
20260503205314 19 292 0.0 0.0 0.00 0.00 0.00 45 1018.4
20260503204811 19 292 0.0 0.0 0.00 0.00 0.00 44 1018.5
20260503204309 19 292 0.0 0.0 0.00 0.00 0.00 44 1018.6
20260503203806 19 291 0.0 0.0 0.00 0.00 0.00 42 1018.6
20260503203303 19 291 0.0 0.0 0.00 0.00 0.00 40 1018.7
20260503202800 19 291 0.0 0.0 0.00 0.00 0.00 44 1018.9
20260503202258 19 291 0.0 0.0 0.00 0.00 0.00 45 1018.8
20260503201755 19 292 0.0 0.0 0.00 0.00 0.00 42 1019.1
20260503201253 19 291 0.0 0.0 0.00 0.00 0.00 40 1019.2
20260503200750 19 291 0.0 0.0 0.00 0.00 0.00 44 1019.3
20260503200246 18 292 0.0 0.0 0.00 0.00 0.00 41 1019.4
20260503195743 18 291 0.0 0.0 0.00 0.00 0.00 42 1019.7
20260503195239 18 291 0.0 0.0 0.00 0.00 0.00 46 1019.5
20260503194738 19 291 0.0 0.0 0.00 0.00 0.00 43 1019.8
20260503194233 19 291 0.0 0.0 0.00 0.00 0.00 44 1019.7
20260503193729 18 291 0.0 0.0 0.00 0.00 0.00 45 1019.7
20260503193225 18 291 0.0 0.0 0.00 0.00 0.00 47 1020.0
20260503192721 18 291 0.0 0.0 0.00 0.00 0.00 47 1019.8
20260503192216 18 291 0.0 0.0 0.00 0.00 0.00 45 1020.1
20260503191713 18 291 0.0 0.0 0.00 0.00 0.00 45 1020.1
20260503191211 18 291 0.0 0.0 0.00 0.00 0.00 46 1020.2
20260503190707 18 291 0.0 0.0 0.00 0.00 0.00 46 1020.4
20260503190204 18 291 0.0 0.0 0.00 0.00 0.00 49 1020.2
20260503185701 18 291 0.0 0.0 0.00 0.00 0.00 47 1020.2
20260503185156 17 291 0.0 0.0 0.00 0.00 0.00 49 1020.2
20260503184651 17 291 0.0 0.0 0.00 0.00 0.00 48 1020.3
20260503184148 17 291 0.0 0.0 0.00 0.00 0.00 48 1020.7
20260503183644 17 291 0.0 0.0 0.00 0.00 0.00 46 1020.7
20260503183142 18 291 0.0 0.0 0.00 0.00 0.00 49 1020.8
20260503182640 18 291 0.0 0.0 0.00 0.00 0.00 45 1020.8
20260503182139 17 291 0.0 0.0 0.00 0.00 0.00 51 1020.9
20260503181635 17 291 0.0 0.0 0.00 0.00 0.00 48 1020.9
20260503181132 17 291 0.0 0.0 0.00 0.00 0.00 46 1021.1
20260503180628 17 291 0.0 0.0 0.00 0.00 0.00 45 1021.1
20260503180126 17 291 0.0 0.0 0.00 0.00 0.00 47 1021.6
20260503175623 16 291 0.0 0.0 0.00 0.00 0.00 45 1021.2
20260503175120 16 291 0.0 0.0 0.00 0.00 0.00 47 1021.6
20260503174617 16 291 0.0 0.0 0.00 0.00 0.00 44 1021.4
20260503174114 16 291 0.0 0.0 0.00 0.00 0.00 44 1021.7
20260503173609 16 291 0.0 0.0 0.00 0.00 0.00 46 1021.8
20260503173106 16 291 0.0 0.0 0.00 0.00 0.00 43 1022.0
20260503172603 16 291 0.0 1.6 0.00 0.00 0.00 44 1021.9
20260503172100 16 291 0.0 0.0 0.00 0.00 0.00 45 1022.1
20260503171556 17 291 0.0 0.0 0.00 0.00 0.00 45 1021.9
20260503171054 16 291 0.0 0.0 0.00 0.00 0.00 44 1022.1
20260503170550 16 291 0.0 0.0 0.00 0.00 0.00 48 1022.1
20260503150942 15 291 0.0 0.0 0.00 0.00 0.00 51 1022.9
20260503150439 15 291 0.0 0.0 0.00 0.00 0.00 50 1023.0
20260503131332 7 292 0.0 0.0 0.00 0.00 0.00 95 1023.0
20260503130829 7 292 0.0 0.0 0.00 0.00 0.00 96 1023.0
20260503130327 7 292 0.0 0.0 0.00 0.00 0.00 98 1022.9
20260503110720 5 292 0.0 0.0 0.00 0.00 0.00 99 1021.7
20260503110218 5 292 0.0 0.0 0.00 0.00 0.00 99 1021.8
20260503100144 5 292 0.0 0.0 0.00 0.00 0.00 99 1020.6
20260503081538 6 292 0.0 0.0 0.00 0.00 0.00 96 1020.6
20260503081036 6 292 0.0 0.0 0.00 0.00 0.00 96 1020.3
20260503080532 6 292 0.0 0.0 0.00 0.00 0.00 95 1020.2
20260503072506 6 292 0.0 0.0 0.00 0.00 0.00 97 1020.2
20260503072003 6 292 0.0 0.0 0.00 0.00 0.00 97 1020.0
20260503071500 6 292 0.0 0.0 0.00 0.00 0.00 98 1019.9
20260503070955 6 292 0.0 0.0 0.00 0.00 0.00 98 1019.9
20260503070453 6 292 0.0 0.0 0.00 0.00 0.00 98 1020.0
20260503054906 7 292 0.0 0.0 0.00 0.00 0.00 95 1020.0
20260503054402 7 292 0.0 0.0 0.00 0.00 0.00 95 1019.8
20260503053900 7 292 0.0 0.0 0.00 0.00 0.00 95 1019.7
20260503053358 7 292 0.0 0.0 0.00 0.00 0.00 95 1019.7
20260503052854 7 292 0.0 0.0 0.00 0.00 0.00 95 1019.7
20260503052351 7 292 0.0 0.0 0.00 0.00 0.00 95 1019.7
20260503051847 7 292 0.0 0.0 0.00 0.00 0.00 94 1019.5
20260503051344 7 292 0.0 0.0 0.00 0.00 0.00 94 1019.6
20260503050841 7 292 0.0 0.0 0.00 0.00 0.00 94 1019.5
20260503050337 7 292 0.0 0.0 0.00 0.00 0.00 93 1019.5
20260503045835 7 292 0.0 0.0 0.00 0.00 0.00 93 1019.3
20260503045332 7 292 0.0 0.0 0.00 0.00 0.00 93 1019.5
20260503044828 7 292 0.0 0.0 0.00 0.00 0.00 94 1019.4
20260503044325 7 292 0.0 0.0 0.00 0.00 0.00 94 1019.6
20260503043822 7 292 0.0 0.0 0.00 0.00 0.00 95 1019.6
20260503043319 8 292 0.0 0.0 0.00 0.00 0.00 94 1019.5
20260503042815 8 292 0.0 0.0 0.00 0.00 0.00 95 1019.4
20260503042313 8 292 0.0 0.0 0.00 0.00 0.00 95 1019.5
20260503041808 7 292 0.0 0.0 0.00 0.00 0.00 95 1019.3
20260503041306 7 292 0.0 0.0 0.00 0.00 0.00 96 1019.4
20260503040804 7 292 0.0 0.0 0.00 0.00 0.00 96 1019.2
20260503040301 7 292 0.0 0.0 0.00 0.00 0.00 96 1019.5
20260503035757 7 292 0.0 0.0 0.00 0.05 0.05 95 1019.5
20260503035255 7 292 0.0 0.0 0.00 0.05 0.05 95 1019.3
20260503034752 8 292 0.0 0.0 0.00 0.05 0.05 95 1019.4
20260503034249 8 292 0.0 0.0 0.00 0.05 0.05 95 1019.2
20260503033747 8 292 0.0 0.0 0.00 0.05 0.05 95 1019.2
20260503033244 8 292 0.0 0.0 0.00 0.05 0.05 95 1018.9
20260503032742 8 292 0.0 0.0 0.00 0.05 0.05 95 1019.0
20260503032241 8 292 0.0 0.0 0.00 0.05 0.05 95 1019.2
20260503031737 8 292 0.0 1.6 0.00 0.05 0.05 95 1019.2
20260503031235 8 292 0.0 0.0 0.00 0.05 0.05 95 1019.2
20260503030731 8 292 0.0 0.0 0.00 0.05 0.05 94 1019.3
20260503030228 9 292 0.0 0.0 0.00 0.05 0.05 95 1019.0
20260503025725 9 292 0.0 0.0 0.00 0.05 0.05 95 1019.2
20260503025222 9 292 0.0 0.0 0.00 0.05 0.05 95 1019.3
20260503024719 9 292 0.0 0.0 0.00 0.05 0.05 94 1019.1
20260503024216 10 292 0.0 0.0 0.00 0.05 0.05 94 1018.9
20260503023713 10 292 0.0 0.0 0.00 0.05 0.05 94 1019.0
20260503023210 10 292 0.0 0.0 0.00 0.05 0.05 93 1019.3
20260503022706 10 292 0.0 0.0 0.00 0.05 0.05 93 1019.0
20260503022205 10 292 0.0 0.0 0.00 0.05 0.05 92 1019.2
20260503021703 10 292 0.0 0.0 0.13 0.05 0.05 92 1019.3
20260503021159 10 292 0.0 0.0 0.13 0.05 0.05 90 1019.4
20260503020656 10 292 0.0 0.0 0.18 0.03 0.03 89 1019.2
20260503020154 10 292 0.0 0.0 0.18 0.03 0.03 87 1019.4
20260503015650 11 292 0.0 0.0 0.18 0.03 0.03 86 1019.5
20260503015147 12 292 0.0 0.0 0.00 0.00 0.00 81 1019.2